Weather History for Tallahassee, FL

Change the Weather History Date:

Monday, December 10, 2012

  Actual Average Record
Temperature  
Mean Temperature 70 °F 54 °F  
Max Temperature 79 °F 66 °F 83 °F (1997)
Min Temperature 61 °F 42 °F 20 °F (1974)
Degree Days  
Heating Degree Days 0    
Month to date heating degree days 12  
Since 1 July heating degree days 270  
Cooling Degree Days 5    
Month to date cooling degree days 12  
Year to date cooling degree days 2970  
Growing Degree Days 20 (Base 50)    
Moisture  
Dew Point 62 °F    
Average Humidity 77    
Maximum Humidity 100    
Minimum Humidity 54    
Precipitation  
Precipitation 0.00 in 0.13 in 2.94 in (1967)
Month to date precipitation 0.00 1.28  
Year to date precipitation 56.04 56.61  
Sea Level Pressure  
Sea Level Pressure 29.90 in    
Wind  
Wind Speed 5 mph (South)    
Max Wind Speed 18 mph    
Max Gust Speed 24 mph    
Visibility 8 miles    
Events Fog    
T = Trace of Precipitation, MM = Missing Value Source: NWS Daily Summary

Daily Weather History Graph

Daily Weather History Graph

Search for Another Location

Airport:

Trip Planner

Search our weather history database for the weather conditions in past years. The results will help you decide how hot, cold, wet, or windy it might be!

Date:

Astronomy

Dec. 10, 2012 Rise Set
Actual Time 7:23 AM EST 5:37 PM EST
Civil Twilight 6:57 AM EST 6:03 PM EST
Nautical Twilight 6:27 AM EST 6:33 PM EST
Astronomical Twilight 5:58 AM EST 7:02 PM EST
Moon 4:13 AM EST (12/10) 3:19 PM EST (12/10)
Length of Visible Light 11h 06m
Length of Day
10h 13m
Waning Crescent, 10% of the Moon is Illuminated
Dec 10
Waning Crescent
Dec 13
New
Dec 20
First Quarter
Dec 28
Full
Jan 4
Last Quarter

Hourly Weather History & Observations

Time (EST) Temp. Dew Point Humidity Pressure Visibility Wind Dir Wind Speed Gust Speed Precip Events Conditions
12:53 AM 62.1 °F 60.1 °F 93% 30.00 in 0.2 mi Calm Calm - N/A Fog Fog
1:53 AM 62.1 °F 60.1 °F 93% 29.99 in 0.2 mi Calm Calm - N/A Fog Fog
2:53 AM 62.1 °F 60.1 °F 93% 29.98 in 3.0 mi SSW 3.5 mph - N/A   Overcast
3:53 AM 62.1 °F 60.1 °F 93% 29.97 in 10.0 mi Calm Calm - N/A   Overcast
4:11 AM 62.6 °F 60.8 °F 94% 29.97 in 10.0 mi Calm Calm - N/A   Overcast
4:53 AM 63.0 °F 60.1 °F 90% 29.96 in 10.0 mi Calm Calm - N/A   Overcast
5:53 AM 62.1 °F 60.1 °F 93% 29.95 in 10.0 mi SE 3.5 mph - N/A   Overcast
6:46 AM 62.6 °F 60.8 °F 94% 29.94 in 10.0 mi SE 3.5 mph - N/A   Overcast
6:53 AM 63.0 °F 60.1 °F 90% 29.94 in 10.0 mi SE 3.5 mph - N/A   Overcast
7:02 AM 62.6 °F 60.8 °F 94% 29.94 in 0.5 mi Calm Calm - N/A   Overcast
7:37 AM 60.8 °F 60.8 °F 100% 29.94 in 0.2 mi SSE 4.6 mph - N/A Fog Fog
7:53 AM 61.0 °F 60.1 °F 97% 29.93 in 0.5 mi SSE 4.6 mph - N/A   Mist
8:44 AM 62.6 °F 60.8 °F 94% 29.93 in 3.0 mi South 5.8 mph - N/A   Overcast
8:53 AM 62.1 °F 59.0 °F 90% 29.93 in 10.0 mi SSE 6.9 mph - N/A   Mostly Cloudy
9:29 AM 64.4 °F 59.0 °F 83% 29.94 in 10.0 mi South 6.9 mph - N/A   Mostly Cloudy
9:38 AM 64.4 °F 59.0 °F 83% 29.94 in 10.0 mi SSE 8.1 mph - N/A   Partly Cloudy
9:53 AM 66.0 °F 59.0 °F 78% 29.94 in 10.0 mi South 4.6 mph - N/A   Clear
10:53 AM 69.1 °F 57.9 °F 68% 29.94 in 10.0 mi South 6.9 mph - N/A   Partly Cloudy
11:53 AM 73.0 °F 57.9 °F 59% 29.91 in 10.0 mi South 11.5 mph - N/A   Partly Cloudy
12:53 PM 77.0 °F 59.0 °F 54% 29.89 in 10.0 mi South 8.1 mph 20.7 mph N/A   Scattered Clouds
1:53 PM 78.1 °F 60.1 °F 54% 29.86 in 10.0 mi SSW 12.7 mph 21.9 mph N/A   Scattered Clouds
2:53 PM 75.9 °F 64.0 °F 67% 29.83 in 10.0 mi SSW 10.4 mph - N/A   Mostly Cloudy
3:05 PM 75.2 °F 64.4 °F 69% 29.82 in 10.0 mi SSW 9.2 mph - N/A   Overcast
3:43 PM 77.0 °F 64.4 °F 65% 29.80 in 10.0 mi SW 11.5 mph - N/A   Mostly Cloudy
3:53 PM 77.0 °F 64.9 °F 66% 29.80 in 10.0 mi South 9.2 mph - N/A   Mostly Cloudy
4:53 PM 73.9 °F 64.9 °F 73% 29.81 in 10.0 mi SSE 11.5 mph - N/A   Mostly Cloudy
5:53 PM 72.0 °F 64.9 °F 78% 29.83 in 10.0 mi Calm Calm - N/A   Mostly Cloudy
6:53 PM 69.1 °F 64.9 °F 87% 29.83 in 10.0 mi South 3.5 mph - N/A   Mostly Cloudy
7:53 PM 68.0 °F 64.9 °F 90% 29.84 in 10.0 mi SSE 9.2 mph - N/A   Scattered Clouds
8:53 PM 68.0 °F 64.0 °F 87% 29.84 in 10.0 mi South 4.6 mph - N/A   Scattered Clouds
9:53 PM 68.0 °F 64.9 °F 90% 29.86 in 10.0 mi South 4.6 mph - N/A   Scattered Clouds
10:53 PM 66.9 °F 64.9 °F 93% 29.86 in 10.0 mi SSW 3.5 mph - N/A   Scattered Clouds
11:53 PM 69.1 °F 66.0 °F 90% 29.86 in 8.0 mi WSW 6.9 mph - N/A   Partly Cloudy